Weather History for Worland, WY

Change the Weather History Date:

Saturday, December 15, 2012

  Actual Average Record
Temperature  
Mean Temperature 29 °F 17 °F  
Max Temperature 35 °F 30 °F 61 °F (2006)
Min Temperature 23 °F 4 °F -24 °F (1972)
Degree Days  
Heating Degree Days 36 48  
Month to date heating degree days 534 689  
Since 1 July heating degree days 1926 2581  
Cooling Degree Days 0 0  
Month to date cooling degree days 0 0  
Year to date cooling degree days 901 535  
Moisture  
Dew Point 25 °F    
Average Humidity 82    
Maximum Humidity 92    
Minimum Humidity 72    
Precipitation  
Precipitation T in 0.01 in 0.15 in (2014)
Month to date precipitation 0.04 0.12  
Year to date precipitation 2.69 7.46  
Sea Level Pressure  
Sea Level Pressure 29.78 in    
Wind  
Wind Speed 2 mph (South)    
Max Wind Speed 9 mph    
Max Gust Speed 9 mph    
Visibility 8 miles    
Events Snow    
T = Trace of Precipitation, MM = Missing Value Source: NWS Daily Summary

Daily Weather History Graph

Daily Weather History Graph

Search for Another Location

Airport:

Trip Planner

Search our weather history database for the weather conditions in past years. The results will help you decide how hot, cold, wet, or windy it might be!

Date:

Astronomy

Dec. 15, 2012 Rise Set
Actual Time 7:39 AM MST 4:34 PM MST
Civil Twilight 7:06 AM MST 5:07 PM MST
Nautical Twilight 6:30 AM MST 5:44 PM MST
Astronomical Twilight 5:55 AM MST 6:19 PM MST
Moon 9:31 AM MST (12/15) 7:46 PM MST (12/15)
Length of Visible Light 10h 00m
Length of Day
8h 54m
Waxing Crescent, 9% of the Moon is Illuminated
Dec 15
Waxing Crescent
Dec 19
First Quarter
Dec 28
Full
Jan 4
Last Quarter
Jan 11
New

Hourly Weather History & Observations

Time (MST) Temp. Windchill Dew Point Humidity Pressure Visibility Wind Dir Wind Speed Gust Speed Precip Events Conditions
12:53 AM 30.9 °F 23.5 °F 25.0 °F 79% 29.73 in 10.0 mi SSE 8.1 mph - N/A   Overcast
1:53 AM 32.0 °F 28.7 °F 25.0 °F 75% 29.74 in 10.0 mi SE 3.5 mph - N/A   Overcast
2:53 AM 27.0 °F - 24.1 °F 89% 29.77 in 10.0 mi Calm Calm - N/A   Overcast
3:53 AM 25.0 °F 20.7 °F 21.9 °F 88% 29.80 in 10.0 mi South 3.5 mph - N/A   Overcast
4:53 AM 27.0 °F 20.5 °F 23.0 °F 85% 29.81 in 10.0 mi SW 5.8 mph - N/A   Mostly Cloudy
5:20 AM 24.8 °F - 21.2 °F 86% 29.72 in 10.0 mi Calm Calm - N/A   Mostly Cloudy
5:53 AM 27.0 °F - 23.0 °F 85% 29.83 in 10.0 mi Calm Calm - N/A   Overcast
6:53 AM 27.0 °F 21.6 °F 24.1 °F 89% 29.84 in 10.0 mi SSW 4.6 mph - N/A   Overcast
7:20 AM 28.4 °F - 24.8 °F 86% 29.75 in 10.0 mi Calm Calm - N/A   Overcast
7:53 AM 27.0 °F - 24.1 °F 89% 29.85 in 10.0 mi Calm Calm - N/A   Overcast
8:01 AM 26.6 °F - 24.8 °F 93% 29.75 in 10.0 mi Calm Calm - N/A   Overcast
8:53 AM 28.0 °F 24.2 °F 25.0 °F 88% 29.86 in 10.0 mi WNW 3.5 mph - N/A   Overcast
9:53 AM 28.9 °F - 25.0 °F 85% 29.86 in 9.0 mi Calm Calm - N/A   Overcast
10:23 AM 30.2 °F - 26.6 °F 86% 29.78 in 5.0 mi Calm Calm - N/A   Overcast
10:53 AM 32.0 °F - 28.0 °F 85% 29.86 in 10.0 mi Calm Calm - N/A   Overcast
11:53 AM 33.1 °F - 27.0 °F 78% 29.82 in 7.0 mi Calm Calm - N/A   Overcast
12:28 PM 33.8 °F - 28.4 °F 81% 29.73 in 2.0 mi Calm Calm - 0.00 in Snow Light Snow
12:41 PM 33.8 °F - 28.4 °F 81% 29.72 in 4.0 mi Calm Calm - 0.00 in Snow Light Snow
12:53 PM 34.0 °F - 28.0 °F 79% 29.79 in 10.0 mi Calm Calm - 0.00 in   Overcast
1:53 PM 34.0 °F 31.0 °F 27.0 °F 75% 29.77 in 10.0 mi NNE 3.5 mph - N/A   Overcast
2:53 PM 34.0 °F 31.0 °F 27.0 °F 75% 29.77 in 10.0 mi NNE 3.5 mph - N/A   Overcast
3:53 PM 33.1 °F - 27.0 °F 78% 29.79 in 10.0 mi Calm Calm - N/A   Overcast
4:53 PM 32.0 °F 28.7 °F 27.0 °F 82% 29.78 in 10.0 mi NNE 3.5 mph - N/A   Overcast
5:53 PM 30.9 °F 27.5 °F 28.0 °F 89% 29.78 in 10.0 mi ENE 3.5 mph - N/A   Overcast
6:53 PM 30.9 °F - 28.0 °F 89% 29.77 in 9.0 mi Calm Calm - N/A   Overcast
7:53 PM 30.0 °F - 28.0 °F 92% 29.76 in 8.0 mi Calm Calm - N/A   Overcast
8:53 PM 28.0 °F 24.2 °F 27.0 °F 96% 29.76 in 6.0 mi West 3.5 mph - N/A   Mostly Cloudy
9:53 PM 27.0 °F - 25.0 °F 92% 29.75 in 5.0 mi Calm Calm - N/A   Scattered Clouds
10:53 PM 24.1 °F 18.2 °F 23.0 °F 96% 29.74 in 4.0 mi South 4.6 mph - N/A   Clear
11:28 PM 24.8 °F - 23.0 °F 93% 29.64 in 5.0 mi Calm Calm - N/A   Mostly Cloudy
11:53 PM 24.1 °F - 23.0 °F 96% 29.72 in 4.0 mi Calm Calm - N/A   Overcast